owner,sensor,date,latitude,longitude,vertical_datum,sea_water_practical_salinity,qcFlag 
ENP,ioos.station.NOAA.NDBC:LBRF1:1,2015-10-01T00:00:00Z,25.4840,-81.1330,1.5,31.4,11111222 
ENP,ioos.station.NOAA.NDBC:LBRF1:1,2015-10-01T01:00:00Z,25.4840,-81.1330,1.5,31.15,1111122 
ENP,ioos.station.NOAA.NDBC:LBRF1:1,2015-10-01T02:00:00Z,25.4840,-81.1330,1.5,29.1,11111222 
ENP,ioos.station.NOAA.NDBC:LBRF1:1,2015-10-01T03:00:00Z,25.4840,-81.1330,1.5,28.34,1111122 
ENP,ioos.station.NOAA.NDBC:LBRF1:1,2015-10-01T04:00:00Z,25.4840,-81.1330,1.5,26.41,1111122 
ENP,ioos.station.NOAA.NDBC:LBRF1:1,2015-10-01T06:00:00Z,25.4840,-81.1330,1.5,25.2,11111222 
ENP,ioos.station.NOAA.NDBC:LBRF1:1,2015-10-01T07:00:00Z,25.4840,-81.1330,1.5,27.48,1111122 
ENP,ioos.station.NOAA.NDBC:LBRF1:1,2015-10-01T08:00:00Z,25.4840,-81.1330,1.5,30.28,1111122 
ENP,ioos.station.NOAA.NDBC:LBRF1:1,2015-10-01T10:00:00Z,25.4840,-81.1330,1.5,32.97,1111122 
ENP,ioos.station.NOAA.NDBC:LBRF1:1,2015-10-01T11:00:00Z,25.4840,-81.1330,1.5,33.04,1111122 
ENP,ioos.station.NOAA.NDBC:LBRF1:1,2015-10-01T14:00:00Z,25.4840,-81.1330,1.5,30.5,1111122 
ENP,ioos.station.NOAA.NDBC:LBRF1:1,2015-10-01T15:00:00Z,25.4840,-81.1330,1.5,28.05,1111122 
ENP,ioos.station.NOAA.NDBC:LBRF1:1,2015-10-01T16:00:00Z,25.4840,-81.1330,1.5,26.41,1111122 
ENP,ioos.station.NOAA.NDBC:LBRF1:1,2015-10-01T17:00:00Z,25.4840,-81.1330,1.5,24.0,11111222 
ENP,ioos.station.NOAA.NDBC:LBRF1:1,2015-10-01T18:00:00Z,25.4840,-81.1330,1.5,21.3,1111122 
ENP,ioos.station.NOAA.NDBC:LBRF1:1,2015-10-01T20:00:00Z,25.4840,-81.1330,1.5,23.46,1111122 
ENP,ioos.station.NOAA.NDBC:LBRF1:1,2015-10-01T21:00:00Z,25.4840,-81.1330,1.5,28.55,1111122 
ENP,ioos.station.NOAA.NDBC:LBRF1:1,2015-10-01T23:00:00Z,25.4840,-81.1330,1.5,31.58,1111122 
ENP,ioos.station.NOAA.NDBC:LBRF1:1,2015-10-02T00:00:00Z,25.4840,-81.1330,1.5,32.02,1111122 
ENP,ioos.station.NOAA.NDBC:LBRF1:1,2015-10-02T01:00:00Z,25.4840,-81.1330,1.5,32.17,1111122 
ENP,ioos.station.NOAA.NDBC:LBRF1:1,2015-10-02T02:00:00Z,25.4840,-81.1330,1.5,30.57,1111122 
ENP,ioos.station.NOAA.NDBC:LBRF1:1,2015-10-02T03:00:00Z,25.4840,-81.1330,1.5,29.13,1111122 
ENP,ioos.station.NOAA.NDBC:LBRF1:1,2015-10-02T04:00:00Z,25.4840,-81.1330,1.5,26.77,1111122 
ENP,ioos.station.NOAA.NDBC:LBRF1:1,2015-10-02T06:00:00Z,25.4840,-81.1330,1.5,23.81,1111122 
ENP,ioos.station.NOAA.NDBC:LBRF1:1,2015-10-02T08:00:00Z,25.4840,-81.1330,1.5,27.98,1111122 
ENP,ioos.station.NOAA.NDBC:LBRF1:1,2015-10-02T09:00:00Z,25.4840,-81.1330,1.5,31.44,1111122 
ENP,ioos.station.NOAA.NDBC:LBRF1:1,2015-10-02T10:00:00Z,25.4840,-81.1330,1.5,31.87,1111122 
ENP,ioos.station.NOAA.NDBC:LBRF1:1,2015-10-02T11:00:00Z,25.4840,-81.1330,1.5,31.87,1111122 
ENP,ioos.station.NOAA.NDBC:LBRF1:1,2015-10-02T12:00:00Z,25.4840,-81.1330,1.5,31.8,11111222 
ENP,ioos.station.NOAA.NDBC:LBRF1:1,2015-10-02T13:00:00Z,25.4840,-81.1330,1.5,31.73,1111122 
ENP,ioos.station.NOAA.NDBC:LBRF1:1,2015-10-02T14:00:00Z,25.4840,-81.1330,1.5,30.21,1111122 
ENP,ioos.station.NOAA.NDBC:LBRF1:1,2015-10-02T15:00:00Z,25.4840,-81.1330,1.5,29.2,1111122 
ENP,ioos.station.NOAA.NDBC:LBRF1:1,2015-10-02T16:00:00Z,25.4840,-81.1330,1.5,26.13,1111122 
ENP,ioos.station.NOAA.NDBC:LBRF1:1,2015-10-02T17:00:00Z,25.4840,-81.1330,1.5,23.4,11111222 
ENP,ioos.station.NOAA.NDBC:LBRF1:1,2015-10-02T18:00:00Z,25.4840,-81.1330,1.5,20.82,1111122 
ENP,ioos.station.NOAA.NDBC:LBRF1:1,2015-10-02T20:00:00Z,25.4840,-81.1330,1.5,19.04,1111122 
ENP,ioos.station.NOAA.NDBC:LBRF1:1,2015-10-02T22:00:00Z,25.4840,-81.1330,1.5,24.37,1111122 
ENP,ioos.station.NOAA.NDBC:LBRF1:1,2015-10-02T23:00:00Z,25.4840,-81.1330,1.5,28.77,1111122 
ENP,ioos.station.NOAA.NDBC:LBRF1:1,2015-10-03T00:00:00Z,25.4840,-81.1330,1.5,29.77,1111122 
ENP,ioos.station.NOAA.NDBC:LBRF1:1,2015-10-03T01:00:00Z,25.4840,-81.1330,1.5,30.21,1111122 
ENP,ioos.station.NOAA.NDBC:LBRF1:1,2015-10-03T03:00:00Z,25.4840,-81.1330,1.5,29.41,1111122 
ENP,ioos.station.NOAA.NDBC:LBRF1:1,2015-10-03T04:00:00Z,25.4840,-81.1330,1.5,27.27,1111122 
ENP,ioos.station.NOAA.NDBC:LBRF1:1,2015-10-03T06:00:00Z,25.4840,-81.1330,1.5,21.72,1111122 
ENP,ioos.station.NOAA.NDBC:LBRF1:1,2015-10-03T07:00:00Z,25.4840,-81.1330,1.5,21.86,1111122 
ENP,ioos.station.NOAA.NDBC:LBRF1:1,2015-10-03T08:00:00Z,25.4840,-81.1330,1.5,25.28,1111122 
ENP,ioos.station.NOAA.NDBC:LBRF1:1,2015-10-03T09:00:00Z,25.4840,-81.1330,1.5,29.6,11111222 
ENP,ioos.station.NOAA.NDBC:LBRF1:1,2015-10-03T10:00:00Z,25.4840,-81.1330,1.5,31.0,1111122 
ENP,ioos.station.NOAA.NDBC:LBRF1:1,2015-10-03T11:00:00Z,25.4840,-81.1330,1.5,31.73,1111122 
ENP,ioos.station.NOAA.NDBC:LBRF1:1,2015-10-03T12:00:00Z,25.4840,-81.1330,1.5,31.73,1111122 
ENP,ioos.station.NOAA.NDBC:LBRF1:1,2015-10-03T13:00:00Z,25.4840,-81.1330,1.5,31.8,1111122 
ENP,ioos.station.NOAA.NDBC:LBRF1:1,2015-10-03T15:00:00Z,25.4840,-81.1330,1.5,30.79,1111122 
ENP,ioos.station.NOAA.NDBC:LBRF1:1,2015-10-03T16:00:00Z,25.4840,-81.1330,1.5,29.85,1111122 
ENP,ioos.station.NOAA.NDBC:LBRF1:1,2015-10-03T17:00:00Z,25.4840,-81.1330,1.5,28.2,11111222 
ENP,ioos.station.NOAA.NDBC:LBRF1:1,2015-10-03T18:00:00Z,25.4840,-81.1330,1.5,26.63,1111122 
ENP,ioos.station.NOAA.NDBC:LBRF1:1,2015-10-03T19:00:00Z,25.4840,-81.1330,1.5,25.6,11111222 
ENP,ioos.station.NOAA.NDBC:LBRF1:1,2015-10-03T20:00:00Z,25.4840,-81.1330,1.5,24.93,1111122 
ENP,ioos.station.NOAA.NDBC:LBRF1:1,2015-10-03T21:00:00Z,25.4840,-81.1330,1.5,25.0,1111122 
ENP,ioos.station.NOAA.NDBC:LBRF1:1,2015-10-03T22:00:00Z,25.4840,-81.1330,1.5,25.92,1111122 
ENP,ioos.station.NOAA.NDBC:LBRF1:1,2015-10-04T00:00:00Z,25.4840,-81.1330,1.5,29.7,1111122 
ENP,ioos.station.NOAA.NDBC:LBRF1:1,2015-10-04T01:00:00Z,25.4840,-81.1330,1.5,30.06,1111122 
ENP,ioos.station.NOAA.NDBC:LBRF1:1,2015-10-04T02:00:00Z,25.4840,-81.1330,1.5,30.21,1111122 
ENP,ioos.station.NOAA.NDBC:LBRF1:1,2015-10-04T04:00:00Z,25.4840,-81.1330,1.5,27.34,1111122 
ENP,ioos.station.NOAA.NDBC:LBRF1:1,2015-10-04T06:00:00Z,25.4840,-81.1330,1.5,23.3,11111222 
ENP,ioos.station.NOAA.NDBC:LBRF1:1,2015-10-04T07:00:00Z,25.4840,-81.1330,1.5,21.79,1111122 
ENP,ioos.station.NOAA.NDBC:LBRF1:1,2015-10-04T09:00:00Z,25.4840,-81.1330,1.5,22.34,1111122 
ENP,ioos.station.NOAA.NDBC:LBRF1:1,2015-10-04T10:00:00Z,25.4840,-81.1330,1.5,25.56,1111122 
ENP,ioos.station.NOAA.NDBC:LBRF1:1,2015-10-04T11:00:00Z,25.4840,-81.1330,1.5,29.2,1111122 
ENP,ioos.station.NOAA.NDBC:LBRF1:1,2015-10-04T12:00:00Z,25.4840,-81.1330,1.5,29.92,1111122 
ENP,ioos.station.NOAA.NDBC:LBRF1:1,2015-10-04T14:00:00Z,25.4840,-81.1330,1.5,30.13,1111122 
ENP,ioos.station.NOAA.NDBC:LBRF1:1,2015-10-05T03:00:00Z,25.4840,-81.1330,1.5,29.8,11111222 
ENP,ioos.station.NOAA.NDBC:LBRF1:1,2015-10-05T04:00:00Z,25.4840,-81.1330,1.5,29.85,1111122 
ENP,ioos.station.NOAA.NDBC:LBRF1:1,2015-10-05T05:00:00Z,25.4840,-81.1330,1.5,29.6,11111222 
ENP,ioos.station.NOAA.NDBC:LBRF1:1,2015-10-05T07:00:00Z,25.4840,-81.1330,1.5,26.34,1111122 
ENP,ioos.station.NOAA.NDBC:LBRF1:1,2015-10-05T08:00:00Z,25.4840,-81.1330,1.5,25.1,11111222 
ENP,ioos.station.NOAA.NDBC:LBRF1:1,2015-10-05T09:00:00Z,25.4840,-81.1330,1.5,25.14,1111122 
ENP,ioos.station.NOAA.NDBC:LBRF1:1,2015-10-05T10:00:00Z,25.4840,-81.1330,1.5,26.1,11111222 
ENP,ioos.station.NOAA.NDBC:LBRF1:1,2015-10-05T11:00:00Z,25.4840,-81.1330,1.5,28.7,1111122 
ENP,ioos.station.NOAA.NDBC:LBRF1:1,2015-10-05T12:00:00Z,25.4840,-81.1330,1.5,29.27,1111122 
ENP,ioos.station.NOAA.NDBC:LBRF1:1,2015-10-05T14:00:00Z,25.4840,-81.1330,1.5,30.13,1111122 
ENP,ioos.station.NOAA.NDBC:LBRF1:1,2015-10-05T16:00:00Z,25.4840,-81.1330,1.5,30.13,1111122 
ENP,ioos.station.NOAA.NDBC:LBRF1:1,2015-10-05T17:00:00Z,25.4840,-81.1330,1.5,30.1,11111222 
ENP,ioos.station.NOAA.NDBC:LBRF1:1,2015-10-05T18:00:00Z,25.4840,-81.1330,1.5,29.2,1111122 
ENP,ioos.station.NOAA.NDBC:LBRF1:1,2015-10-05T19:00:00Z,25.4840,-81.1330,1.5,28.55,1111122 
ENP,ioos.station.NOAA.NDBC:LBRF1:1,2015-10-05T20:00:00Z,25.4840,-81.1330,1.5,26.27,1111122 
ENP,ioos.station.NOAA.NDBC:LBRF1:1,2015-10-05T22:00:00Z,25.4840,-81.1330,1.5,24.37,1111122 
ENP,ioos.station.NOAA.NDBC:LBRF1:1,2015-10-05T23:00:00Z,25.4840,-81.1330,1.5,23.53,1111122 
ENP,ioos.station.NOAA.NDBC:LBRF1:1,2015-10-06T00:00:00Z,25.4840,-81.1330,1.5,23.53,1111122 
ENP,ioos.station.NOAA.NDBC:LBRF1:1,2015-10-06T01:00:00Z,25.4840,-81.1330,1.5,24.23,1111122 
ENP,ioos.station.NOAA.NDBC:LBRF1:1,2015-10-06T02:00:00Z,25.4840,-81.1330,1.5,25.99,1111122 
ENP,ioos.station.NOAA.NDBC:LBRF1:1,2015-10-06T03:00:00Z,25.4840,-81.1330,1.5,27.6,11111222 
ENP,ioos.station.NOAA.NDBC:LBRF1:1,2015-10-06T04:00:00Z,25.4840,-81.1330,1.5,28.41,1111122 
ENP,ioos.station.NOAA.NDBC:LBRF1:1,2015-10-06T05:00:00Z,25.4840,-81.1330,1.5,27.8,11111222 
ENP,ioos.station.NOAA.NDBC:LBRF1:1,2015-10-06T06:00:00Z,25.4840,-81.1330,1.5,25.42,1111122 
ENP,ioos.station.NOAA.NDBC:LBRF1:1,2015-10-06T07:00:00Z,25.4840,-81.1330,1.5,24.0,11111222 
ENP,ioos.station.NOAA.NDBC:LBRF1:1,2015-10-06T08:00:00Z,25.4840,-81.1330,1.5,21.86,1111122 
ENP,ioos.station.NOAA.NDBC:LBRF1:1,2015-10-06T09:00:00Z,25.4840,-81.1330,1.5,19.86,1111122 
ENP,ioos.station.NOAA.NDBC:LBRF1:1,2015-10-06T10:00:00Z,25.4840,-81.1330,1.5,18.56,1111122 
ENP,ioos.station.NOAA.NDBC:LBRF1:1,2015-10-06T11:00:00Z,25.4840,-81.1330,1.5,18.49,1111122 
ENP,ioos.station.NOAA.NDBC:LBRF1:1,2015-10-06T12:00:00Z,25.4840,-81.1330,1.5,18.9,1111122 
ENP,ioos.station.NOAA.NDBC:LBRF1:1,2015-10-06T13:00:00Z,25.4840,-81.1330,1.5,23.11,1111122 
ENP,ioos.station.NOAA.NDBC:LBRF1:1,2015-10-06T15:00:00Z,25.4840,-81.1330,1.5,26.7,1111122 
ENP,ioos.station.NOAA.NDBC:LBRF1:1,2015-10-06T16:00:00Z,25.4840,-81.1330,1.5,27.34,1111122 
ENP,ioos.station.NOAA.NDBC:LBRF1:1,2015-10-06T17:00:00Z,25.4840,-81.1330,1.5,26.13,1111122 
ENP,ioos.station.NOAA.NDBC:LBRF1:1,2015-10-06T18:00:00Z,25.4840,-81.1330,1.5,22.76,1111122 
ENP,ioos.station.NOAA.NDBC:LBRF1:1,2015-10-06T19:00:00Z,25.4840,-81.1330,1.5,19.6,11111222 
ENP,ioos.station.NOAA.NDBC:LBRF1:1,2015-10-06T20:00:00Z,25.4840,-81.1330,1.5,16.06,1111122 
ENP,ioos.station.NOAA.NDBC:LBRF1:1,2015-10-06T21:00:00Z,25.4840,-81.1330,1.5,13.67,1111122 
ENP,ioos.station.NOAA.NDBC:LBRF1:1,2015-10-06T22:00:00Z,25.4840,-81.1330,1.5,12.36,1111122 
ENP,ioos.station.NOAA.NDBC:LBRF1:1,2015-10-06T23:00:00Z,25.4840,-81.1330,1.5,11.65,1111122 
ENP,ioos.station.NOAA.NDBC:LBRF1:1,2015-10-07T00:00:00Z,25.4840,-81.1330,1.5,11.1,11111222 
ENP,ioos.station.NOAA.NDBC:LBRF1:1,2015-10-07T01:00:00Z,25.4840,-81.1330,1.5,11.19,1111122 
ENP,ioos.station.NOAA.NDBC:LBRF1:1,2015-10-07T02:00:00Z,25.4840,-81.1330,1.5,14.2,1111122 
ENP,ioos.station.NOAA.NDBC:LBRF1:1,2015-10-07T03:00:00Z,25.4840,-81.1330,1.5,17.54,1111122 
ENP,ioos.station.NOAA.NDBC:LBRF1:1,2015-10-07T04:00:00Z,25.4840,-81.1330,1.5,20.2,1111122 
ENP,ioos.station.NOAA.NDBC:LBRF1:1,2015-10-07T06:00:00Z,25.4840,-81.1330,1.5,22.4,11111222 
ENP,ioos.station.NOAA.NDBC:LBRF1:1,2015-10-07T07:00:00Z,25.4840,-81.1330,1.5,17.27,1111122 
ENP,ioos.station.NOAA.NDBC:LBRF1:1,2015-10-07T08:00:00Z,25.4840,-81.1330,1.5,15.2,1111122 
ENP,ioos.station.NOAA.NDBC:LBRF1:1,2015-10-07T09:00:00Z,25.4840,-81.1330,1.5,12.4,11111222 
ENP,ioos.station.NOAA.NDBC:LBRF1:1,2015-10-07T10:00:00Z,25.4840,-81.1330,1.5,11.0,1111122 
ENP,ioos.station.NOAA.NDBC:LBRF1:1,2015-10-07T11:00:00Z,25.4840,-81.1330,1.5,10.55,1111122 
ENP,ioos.station.NOAA.NDBC:LBRF1:1,2015-10-07T12:00:00Z,25.4840,-81.1330,1.5,10.42,1111122 
ENP,ioos.station.NOAA.NDBC:LBRF1:1,2015-10-07T13:00:00Z,25.4840,-81.1330,1.5,10.42,1111122 
ENP,ioos.station.NOAA.NDBC:LBRF1:1,2015-10-07T14:00:00Z,25.4840,-81.1330,1.5,15.5,11111222 
ENP,ioos.station.NOAA.NDBC:LBRF1:1,2015-10-07T15:00:00Z,25.4840,-81.1330,1.5,18.6,11111222 
ENP,ioos.station.NOAA.NDBC:LBRF1:1,2015-10-07T16:00:00Z,25.4840,-81.1330,1.5,23.5,11111222 
ENP,ioos.station.NOAA.NDBC:LBRF1:1,2015-10-07T17:00:00Z,25.4840,-81.1330,1.5,24.16,1111122 
ENP,ioos.station.NOAA.NDBC:LBRF1:1,2015-10-07T18:00:00Z,25.4840,-81.1330,1.5,24.37,1111122 
ENP,ioos.station.NOAA.NDBC:LBRF1:1,2015-10-07T19:00:00Z,25.4840,-81.1330,1.5,21.51,1111122 
ENP,ioos.station.NOAA.NDBC:LBRF1:1,2015-10-07T20:00:00Z,25.4840,-81.1330,1.5,17.61,1111122 
ENP,ioos.station.NOAA.NDBC:LBRF1:1,2015-10-07T21:00:00Z,25.4840,-81.1330,1.5,14.4,11111222 
ENP,ioos.station.NOAA.NDBC:LBRF1:1,2015-10-07T22:00:00Z,25.4840,-81.1330,1.5,10.94,1111122 
ENP,ioos.station.NOAA.NDBC:LBRF1:1,2015-10-07T23:00:00Z,25.4840,-81.1330,1.5,10.1,1111122 
ENP,ioos.station.NOAA.NDBC:LBRF1:1,2015-10-08T00:00:00Z,25.4840,-81.1330,1.5,9.78,1111122 
ENP,ioos.station.NOAA.NDBC:LBRF1:1,2015-10-08T01:00:00Z,25.4840,-81.1330,1.5,9.65,1111122 
ENP,ioos.station.NOAA.NDBC:LBRF1:1,2015-10-08T03:00:00Z,25.4840,-81.1330,1.5,13.3,11111222 
ENP,ioos.station.NOAA.NDBC:LBRF1:1,2015-10-08T04:00:00Z,25.4840,-81.1330,1.5,19.45,1111122 
ENP,ioos.station.NOAA.NDBC:LBRF1:1,2015-10-08T05:00:00Z,25.4840,-81.1330,1.5,24.0,11111222 
ENP,ioos.station.NOAA.NDBC:LBRF1:1,2015-10-08T06:00:00Z,25.4840,-81.1330,1.5,24.51,1111122 
ENP,ioos.station.NOAA.NDBC:LBRF1:1,2015-10-08T07:00:00Z,25.4840,-81.1330,1.5,24.79,1111122 
ENP,ioos.station.NOAA.NDBC:LBRF1:1,2015-10-08T08:00:00Z,25.4840,-81.1330,1.5,23.25,1111122 
ENP,ioos.station.NOAA.NDBC:LBRF1:1,2015-10-08T09:00:00Z,25.4840,-81.1330,1.5,19.6,11111222 
ENP,ioos.station.NOAA.NDBC:LBRF1:1,2015-10-08T10:00:00Z,25.4840,-81.1330,1.5,15.2,1111122 
ENP,ioos.station.NOAA.NDBC:LBRF1:1,2015-10-08T11:00:00Z,25.4840,-81.1330,1.5,11.58,1111122 
ENP,ioos.station.NOAA.NDBC:LBRF1:1,2015-10-08T12:00:00Z,25.4840,-81.1330,1.5,10.29,1111122 
ENP,ioos.station.NOAA.NDBC:LBRF1:1,2015-10-08T13:00:00Z,25.4840,-81.1330,1.5,9.97,1111122 
ENP,ioos.station.NOAA.NDBC:LBRF1:1,2015-10-08T14:00:00Z,25.4840,-81.1330,1.5,10.87,1111122 
ENP,ioos.station.NOAA.NDBC:LBRF1:1,2015-10-08T15:00:00Z,25.4840,-81.1330,1.5,17.54,1111122 
ENP,ioos.station.NOAA.NDBC:LBRF1:1,2015-10-08T16:00:00Z,25.4840,-81.1330,1.5,22.9,11111222 
ENP,ioos.station.NOAA.NDBC:LBRF1:1,2015-10-08T17:00:00Z,25.4840,-81.1330,1.5,24.93,1111122 
ENP,ioos.station.NOAA.NDBC:LBRF1:1,2015-10-09T06:00:00Z,25.4840,-81.1330,1.5,25.6,11111222 
ENP,ioos.station.NOAA.NDBC:LBRF1:1,2015-10-09T07:00:00Z,25.4840,-81.1330,1.5,25.85,1111122 
ENP,ioos.station.NOAA.NDBC:LBRF1:1,2015-10-09T08:00:00Z,25.4840,-81.1330,1.5,25.71,1111122 
ENP,ioos.station.NOAA.NDBC:LBRF1:1,2015-10-09T09:00:00Z,25.4840,-81.1330,1.5,21.9,11111222 
ENP,ioos.station.NOAA.NDBC:LBRF1:1,2015-10-09T10:00:00Z,25.4840,-81.1330,1.5,19.38,1111122 
ENP,ioos.station.NOAA.NDBC:LBRF1:1,2015-10-09T11:00:00Z,25.4840,-81.1330,1.5,14.66,1111122 
ENP,ioos.station.NOAA.NDBC:LBRF1:1,2015-10-09T12:00:00Z,25.4840,-81.1330,1.5,11.3,11111222 
ENP,ioos.station.NOAA.NDBC:LBRF1:1,2015-10-09T13:00:00Z,25.4840,-81.1330,1.5,9.97,1111122 
ENP,ioos.station.NOAA.NDBC:LBRF1:1,2015-10-09T14:00:00Z,25.4840,-81.1330,1.5,9.78,1111122 
ENP,ioos.station.NOAA.NDBC:LBRF1:1,2015-10-09T16:00:00Z,25.4840,-81.1330,1.5,20.2,1111122 
ENP,ioos.station.NOAA.NDBC:LBRF1:1,2015-10-09T17:00:00Z,25.4840,-81.1330,1.5,25.63,1111122 
ENP,ioos.station.NOAA.NDBC:LBRF1:1,2015-10-09T18:00:00Z,25.4840,-81.1330,1.5,26.98,1111122 
ENP,ioos.station.NOAA.NDBC:LBRF1:1,2015-10-09T19:00:00Z,25.4840,-81.1330,1.5,27.05,1111122 
ENP,ioos.station.NOAA.NDBC:LBRF1:1,2015-10-09T20:00:00Z,25.4840,-81.1330,1.5,26.98,1111122 
ENP,ioos.station.NOAA.NDBC:LBRF1:1,2015-10-09T21:00:00Z,25.4840,-81.1330,1.5,25.42,1111122 
ENP,ioos.station.NOAA.NDBC:LBRF1:1,2015-10-09T22:00:00Z,25.4840,-81.1330,1.5,21.9,11111222 
ENP,ioos.station.NOAA.NDBC:LBRF1:1,2015-10-10T00:00:00Z,25.4840,-81.1330,1.5,13.2,11111222 
ENP,ioos.station.NOAA.NDBC:LBRF1:1,2015-10-10T01:00:00Z,25.4840,-81.1330,1.5,10.7,11111222 
ENP,ioos.station.NOAA.NDBC:LBRF1:1,2015-10-10T02:00:00Z,25.4840,-81.1330,1.5,10.0,11111222 
ENP,ioos.station.NOAA.NDBC:LBRF1:1,2015-10-10T03:00:00Z,25.4840,-81.1330,1.5,10.2,11111222 
ENP,ioos.station.NOAA.NDBC:LBRF1:1,2015-10-10T04:00:00Z,25.4840,-81.1330,1.5,17.2,11111222 
ENP,ioos.station.NOAA.NDBC:LBRF1:1,2015-10-10T06:00:00Z,25.4840,-81.1330,1.5,26.8,11111222 
ENP,ioos.station.NOAA.NDBC:LBRF1:1,2015-10-10T07:00:00Z,25.4840,-81.1330,1.5,27.1,11111222 
ENP,ioos.station.NOAA.NDBC:LBRF1:1,2015-10-10T08:00:00Z,25.4840,-81.1330,1.5,27.2,11111222 
ENP,ioos.station.NOAA.NDBC:LBRF1:1,2015-10-10T09:00:00Z,25.4840,-81.1330,1.5,26.6,11111222 
ENP,ioos.station.NOAA.NDBC:LBRF1:1,2015-10-10T10:00:00Z,25.4840,-81.1330,1.5,22.4,11111222 
ENP,ioos.station.NOAA.NDBC:LBRF1:1,2015-10-10T11:00:00Z,25.4840,-81.1330,1.5,18.9,11111222 
ENP,ioos.station.NOAA.NDBC:LBRF1:1,2015-10-10T12:00:00Z,25.4840,-81.1330,1.5,14.2,11111222 
ENP,ioos.station.NOAA.NDBC:LBRF1:1,2015-10-10T14:00:00Z,25.4840,-81.1330,1.5,9.9,11111222 
ENP,ioos.station.NOAA.NDBC:LBRF1:1,2015-10-10T15:00:00Z,25.4840,-81.1330,1.5,9.9,11111222 
ENP,ioos.station.NOAA.NDBC:LBRF1:1,2015-10-10T16:00:00Z,25.4840,-81.1330,1.5,14.7,11111222 
ENP,ioos.station.NOAA.NDBC:LBRF1:1,2015-10-10T17:00:00Z,25.4840,-81.1330,1.5,24.4,11111222 
ENP,ioos.station.NOAA.NDBC:LBRF1:1,2015-10-10T18:00:00Z,25.4840,-81.1330,1.5,27.3,11111222 
ENP,ioos.station.NOAA.NDBC:LBRF1:1,2015-10-10T19:00:00Z,25.4840,-81.1330,1.5,28.1,11111222 
ENP,ioos.station.NOAA.NDBC:LBRF1:1,2015-10-10T20:00:00Z,25.4840,-81.1330,1.5,28.2,11111222 
ENP,ioos.station.NOAA.NDBC:LBRF1:1,2015-10-10T22:00:00Z,25.4840,-81.1330,1.5,27.3,11111222 
ENP,ioos.station.NOAA.NDBC:LBRF1:1,2015-10-10T23:00:00Z,25.4840,-81.1330,1.5,24.2,11111222 
ENP,ioos.station.NOAA.NDBC:LBRF1:1,2015-10-11T00:00:00Z,25.4840,-81.1330,1.5,21.23,1111122 
ENP,ioos.station.NOAA.NDBC:LBRF1:1,2015-10-11T01:00:00Z,25.4840,-81.1330,1.5,18.0,11111222 
ENP,ioos.station.NOAA.NDBC:LBRF1:1,2015-10-11T02:00:00Z,25.4840,-81.1330,1.5,14.93,1111122 
ENP,ioos.station.NOAA.NDBC:LBRF1:1,2015-10-11T03:00:00Z,25.4840,-81.1330,1.5,15.26,1111122 
ENP,ioos.station.NOAA.NDBC:LBRF1:1,2015-10-11T04:00:00Z,25.4840,-81.1330,1.5,19.24,1111122 
ENP,ioos.station.NOAA.NDBC:LBRF1:1,2015-10-11T06:00:00Z,25.4840,-81.1330,1.5,27.27,1111122 
ENP,ioos.station.NOAA.NDBC:LBRF1:1,2015-10-11T07:00:00Z,25.4840,-81.1330,1.5,28.77,1111122 
ENP,ioos.station.NOAA.NDBC:LBRF1:1,2015-10-11T09:00:00Z,25.4840,-81.1330,1.5,28.7,1111122 
ENP,ioos.station.NOAA.NDBC:LBRF1:1,2015-10-11T10:00:00Z,25.4840,-81.1330,1.5,26.7,1111122 
ENP,ioos.station.NOAA.NDBC:LBRF1:1,2015-10-11T11:00:00Z,25.4840,-81.1330,1.5,24.23,1111122 
ENP,ioos.station.NOAA.NDBC:LBRF1:1,2015-10-11T12:00:00Z,25.4840,-81.1330,1.5,21.03,1111122 
ENP,ioos.station.NOAA.NDBC:LBRF1:1,2015-10-11T13:00:00Z,25.4840,-81.1330,1.5,16.53,1111122 
ENP,ioos.station.NOAA.NDBC:LBRF1:1,2015-10-11T14:00:00Z,25.4840,-81.1330,1.5,13.94,1111122 
ENP,ioos.station.NOAA.NDBC:LBRF1:1,2015-10-11T15:00:00Z,25.4840,-81.1330,1.5,13.02,1111122 
ENP,ioos.station.NOAA.NDBC:LBRF1:1,2015-10-11T16:00:00Z,25.4840,-81.1330,1.5,14.2,11111222 
ENP,ioos.station.NOAA.NDBC:LBRF1:1,2015-10-11T17:00:00Z,25.4840,-81.1330,1.5,20.82,1111122 
ENP,ioos.station.NOAA.NDBC:LBRF1:1,2015-10-11T18:00:00Z,25.4840,-81.1330,1.5,26.84,1111122 
ENP,ioos.station.NOAA.NDBC:LBRF1:1,2015-10-11T19:00:00Z,25.4840,-81.1330,1.5,27.84,1111122 
ENP,ioos.station.NOAA.NDBC:LBRF1:1,2015-10-11T20:00:00Z,25.4840,-81.1330,1.5,27.98,1111122 
ENP,ioos.station.NOAA.NDBC:LBRF1:1,2015-10-11T21:00:00Z,25.4840,-81.1330,1.5,27.98,1111122 
ENP,ioos.station.NOAA.NDBC:LBRF1:1,2015-10-11T22:00:00Z,25.4840,-81.1330,1.5,27.5,11111222 
ENP,ioos.station.NOAA.NDBC:LBRF1:1,2015-10-11T23:00:00Z,25.4840,-81.1330,1.5,24.37,1111122 
ENP,ioos.station.NOAA.NDBC:LBRF1:1,2015-10-12T00:00:00Z,25.4840,-81.1330,1.5,21.0,11111222 
ENP,ioos.station.NOAA.NDBC:LBRF1:1,2015-10-12T01:00:00Z,25.4840,-81.1330,1.5,16.47,1111122 
ENP,ioos.station.NOAA.NDBC:LBRF1:1,2015-10-12T02:00:00Z,25.4840,-81.1330,1.5,13.61,1111122 
ENP,ioos.station.NOAA.NDBC:LBRF1:1,2015-10-12T04:00:00Z,25.4840,-81.1330,1.5,12.75,1111122 
ENP,ioos.station.NOAA.NDBC:LBRF1:1,2015-10-12T06:00:00Z,25.4840,-81.1330,1.5,26.13,1111122 
ENP,ioos.station.NOAA.NDBC:LBRF1:1,2015-10-12T07:00:00Z,25.4840,-81.1330,1.5,27.6,11111222 
ENP,ioos.station.NOAA.NDBC:LBRF1:1,2015-10-12T08:00:00Z,25.4840,-81.1330,1.5,27.91,1111122 
ENP,ioos.station.NOAA.NDBC:LBRF1:1,2015-10-12T09:00:00Z,25.4840,-81.1330,1.5,27.98,1111122 
ENP,ioos.station.NOAA.NDBC:LBRF1:1,2015-10-12T10:00:00Z,25.4840,-81.1330,1.5,27.6,11111222 
ENP,ioos.station.NOAA.NDBC:LBRF1:1,2015-10-12T11:00:00Z,25.4840,-81.1330,1.5,24.02,1111122 
ENP,ioos.station.NOAA.NDBC:LBRF1:1,2015-10-12T12:00:00Z,25.4840,-81.1330,1.5,20.27,1111122 
ENP,ioos.station.NOAA.NDBC:LBRF1:1,2015-10-12T13:00:00Z,25.4840,-81.1330,1.5,15.26,1111122 
ENP,ioos.station.NOAA.NDBC:LBRF1:1,2015-10-12T14:00:00Z,25.4840,-81.1330,1.5,11.97,1111122 
ENP,ioos.station.NOAA.NDBC:LBRF1:1,2015-10-12T15:00:00Z,25.4840,-81.1330,1.5,10.81,1111122 
ENP,ioos.station.NOAA.NDBC:LBRF1:1,2015-10-12T17:00:00Z,25.4840,-81.1330,1.5,13.8,1111122 
ENP,ioos.station.NOAA.NDBC:LBRF1:1,2015-10-12T18:00:00Z,25.4840,-81.1330,1.5,24.37,1111122 
ENP,ioos.station.NOAA.NDBC:LBRF1:1,2015-10-12T19:00:00Z,25.4840,-81.1330,1.5,26.84,1111122 
ENP,ioos.station.NOAA.NDBC:LBRF1:1,2015-10-12T20:00:00Z,25.4840,-81.1330,1.5,27.27,1111122 
ENP,ioos.station.NOAA.NDBC:LBRF1:1,2015-10-12T21:00:00Z,25.4840,-81.1330,1.5,27.5,11111222 
ENP,ioos.station.NOAA.NDBC:LBRF1:1,2015-10-12T22:00:00Z,25.4840,-81.1330,1.5,27.41,1111122 
ENP,ioos.station.NOAA.NDBC:LBRF1:1,2015-10-12T23:00:00Z,25.4840,-81.1330,1.5,24.44,1111122 
ENP,ioos.station.NOAA.NDBC:LBRF1:1,2015-10-13T01:00:00Z,25.4840,-81.1330,1.5,17.48,1111122 
ENP,ioos.station.NOAA.NDBC:LBRF1:1,2015-10-13T02:00:00Z,25.4840,-81.1330,1.5,12.95,1111122 
ENP,ioos.station.NOAA.NDBC:LBRF1:1,2015-10-13T03:00:00Z,25.4840,-81.1330,1.5,11.4,11111222 
ENP,ioos.station.NOAA.NDBC:LBRF1:1,2015-10-13T04:00:00Z,25.4840,-81.1330,1.5,11.19,1111122 
ENP,ioos.station.NOAA.NDBC:LBRF1:1,2015-10-13T06:00:00Z,25.4840,-81.1330,1.5,24.16,1111122 
ENP,ioos.station.NOAA.NDBC:LBRF1:1,2015-10-13T07:00:00Z,25.4840,-81.1330,1.5,27.2,1111122 
ENP,ioos.station.NOAA.NDBC:LBRF1:1,2015-10-13T08:00:00Z,25.4840,-81.1330,1.5,27.7,11111222 
ENP,ioos.station.NOAA.NDBC:LBRF1:1,2015-10-13T09:00:00Z,25.4840,-81.1330,1.5,27.84,1111122 
ENP,ioos.station.NOAA.NDBC:LBRF1:1,2015-10-13T10:00:00Z,25.4840,-81.1330,1.5,27.69,1111122 
ENP,ioos.station.NOAA.NDBC:LBRF1:1,2015-10-13T11:00:00Z,25.4840,-81.1330,1.5,24.4,11111222 
ENP,ioos.station.NOAA.NDBC:LBRF1:1,2015-10-13T12:00:00Z,25.4840,-81.1330,1.5,22.2,1111122 
ENP,ioos.station.NOAA.NDBC:LBRF1:1,2015-10-13T13:00:00Z,25.4840,-81.1330,1.5,17.14,1111122 
ENP,ioos.station.NOAA.NDBC:LBRF1:1,2015-10-13T15:00:00Z,25.4840,-81.1330,1.5,10.36,1111122 
ENP,ioos.station.NOAA.NDBC:LBRF1:1,2015-10-13T16:00:00Z,25.4840,-81.1330,1.5,9.8,11111222 
ENP,ioos.station.NOAA.NDBC:LBRF1:1,2015-10-13T17:00:00Z,25.4840,-81.1330,1.5,9.91,1111122 
ENP,ioos.station.NOAA.NDBC:LBRF1:1,2015-10-13T18:00:00Z,25.4840,-81.1330,1.5,15.73,1111122 
ENP,ioos.station.NOAA.NDBC:LBRF1:1,2015-10-13T20:00:00Z,25.4840,-81.1330,1.5,26.41,1111122 
ENP,ioos.station.NOAA.NDBC:LBRF1:1,2015-10-13T21:00:00Z,25.4840,-81.1330,1.5,26.8,11111222 
ENP,ioos.station.NOAA.NDBC:LBRF1:1,2015-10-13T22:00:00Z,25.4840,-81.1330,1.5,26.91,1111122 
ENP,ioos.station.NOAA.NDBC:LBRF1:1,2015-10-13T23:00:00Z,25.4840,-81.1330,1.5,26.8,11111222 
ENP,ioos.station.NOAA.NDBC:LBRF1:1,2015-10-14T00:00:00Z,25.4840,-81.1330,1.5,23.18,1111122 
ENP,ioos.station.NOAA.NDBC:LBRF1:1,2015-10-14T01:00:00Z,25.4840,-81.1330,1.5,21.0,11111222 
ENP,ioos.station.NOAA.NDBC:LBRF1:1,2015-10-14T02:00:00Z,25.4840,-81.1330,1.5,16.0,1111122 
ENP,ioos.station.NOAA.NDBC:LBRF1:1,2015-10-14T03:00:00Z,25.4840,-81.1330,1.5,12.1,1111122 
ENP,ioos.station.NOAA.NDBC:LBRF1:1,2015-10-14T04:00:00Z,25.4840,-81.1330,1.5,11.32,1111122 
ENP,ioos.station.NOAA.NDBC:LBRF1:1,2015-10-14T05:00:00Z,25.4840,-81.1330,1.5,12.8,11111222 
ENP,ioos.station.NOAA.NDBC:LBRF1:1,2015-10-14T06:00:00Z,25.4840,-81.1330,1.5,18.56,1111122 
ENP,ioos.station.NOAA.NDBC:LBRF1:1,2015-10-14T08:00:00Z,25.4840,-81.1330,1.5,26.41,1111122 
ENP,ioos.station.NOAA.NDBC:LBRF1:1,2015-10-14T09:00:00Z,25.4840,-81.1330,1.5,26.63,1111122 
ENP,ioos.station.NOAA.NDBC:LBRF1:1,2015-10-14T10:00:00Z,25.4840,-81.1330,1.5,26.7,11111222 
ENP,ioos.station.NOAA.NDBC:LBRF1:1,2015-10-14T11:00:00Z,25.4840,-81.1330,1.5,25.78,1111122 